Time,TemperatureF,DewpointF,PressureIn,WindDirection,WindDirectionDegrees,WindSpeedMPH,WindSpeedGustMPH,Humidity,HourlyPrecipIn,Conditions,Clouds,dailyrainin,SoftwareType,DateUTC
2013-06-01 00:01:00,72.0,66.6,30.01,NE,45,0.0,0.0,83,0.00,,,0.08,WUHU216TE923,2013-06-01 04:01:00,
2013-06-01 00:06:00,71.8,66.7,30.01,NE,45,0.0,0.0,84,0.00,,,0.00,WUHU216TE923,2013-06-01 04:06:00,
2013-06-01 00:11:00,71.8,66.7,30.01,NE,45,0.0,0.0,84,0.00,,,0.00,WUHU216TE923,2013-06-01 04:11:00,
2013-06-01 00:16:00,71.8,66.7,30.01,NE,45,0.0,0.0,84,0.00,,,0.00,WUHU216TE923,2013-06-01 04:16:00,
2013-06-01 00:21:00,71.8,66.7,30.01,NE,45,0.0,0.0,84,0.00,,,0.00,WUHU216TE923,2013-06-01 04:21:00,
2013-06-01 00:26:00,71.6,66.2,30.01,NE,45,0.0,0.0,83,0.00,,,0.00,WUHU216TE923,2013-06-01 04:26:00,
2013-06-01 00:31:00,71.8,66.4,30.01,NE,45,0.0,0.0,83,0.00,,,0.00,WUHU216TE923,2013-06-01 04:31:00,
2013-06-01 00:36:00,71.6,66.2,30.01,NE,45,0.0,0.0,83,0.00,,,0.00,WUHU216TE923,2013-06-01 04:36:00,
2013-06-01 00:41:00,71.4,66.0,30.01,NE,45,0.0,0.0,83,0.00,,,0.00,WUHU216TE923,2013-06-01 04:41:00,
2013-06-01 00:46:00,71.4,66.0,30.01,NE,45,0.0,0.0,83,0.00,,,0.00,WUHU216TE923,2013-06-01 04:46:00,
2013-06-01 00:51:00,71.4,65.7,30.01,NE,45,0.0,0.0,82,0.00,,,0.00,WUHU216TE923,2013-06-01 04:51:00,
2013-06-01 00:56:00,71.4,65.7,30.01,NE,45,0.0,0.0,82,0.00,,,0.00,WUHU216TE923,2013-06-01 04:56:00,
2013-06-01 01:01:00,71.4,65.7,30.01,NE,45,0.0,0.0,82,0.00,,,0.00,WUHU216TE923,2013-06-01 05:01:00,
2013-06-01 01:06:00,71.2,65.5,30.01,NE,45,0.0,0.0,82,0.00,,,0.00,WUHU216TE923,2013-06-01 05:06:00,
2013-06-01 01:11:00,71.4,65.7,30.01,NE,45,0.0,0.0,82,0.00,,,0.00,WUHU216TE923,2013-06-01 05:11:00,
2013-06-01 01:16:00,71.2,65.5,30.01,NE,45,0.0,0.0,82,0.00,,,0.00,WUHU216TE923,2013-06-01 05:16:00,
2013-06-01 01:21:00,71.2,65.5,30.00,NE,45,0.0,0.0,82,0.00,,,0.00,WUHU216TE923,2013-06-01 05:21:00,
2013-06-01 01:26:00,71.2,65.5,30.00,NE,45,0.0,0.0,82,0.00,,,0.00,WUHU216TE923,2013-06-01 05:26:00,
2013-06-01 01:31:00,71.2,65.5,30.00,NNE,23,0.0,0.0,82,0.00,,,0.00,WUHU216TE923,2013-06-01 05:31:00,
2013-06-01 01:36:00,71.1,65.4,30.00,East,90,0.1,1.1,82,0.00,,,0.00,WUHU216TE923,2013-06-01 05:36:00,
2013-06-01 01:41:00,71.1,65.4,30.00,West,270,0.2,1.1,82,0.00,,,0.00,WUHU216TE923,2013-06-01 05:41:00,
2013-06-01 01:46:00,71.1,65.4,30.00,West,270,0.1,0.2,82,0.00,,,0.00,WUHU216TE923,2013-06-01 05:46:00,
2013-06-01 01:51:00,71.1,65.4,30.00,East,90,0.1,0.1,82,0.00,,,0.00,WUHU216TE923,2013-06-01 05:51:00,
2013-06-01 01:56:00,71.1,65.4,30.00,ENE,68,0.0,0.1,82,0.00,,,0.00,WUHU216TE923,2013-06-01 05:56:00,
2013-06-01 02:01:00,70.9,64.9,30.00,ENE,68,0.1,0.1,81,0.00,,,0.00,WUHU216TE923,2013-06-01 06:01:00,
2013-06-01 02:06:00,71.1,65.0,30.00,South,180,0.1,0.1,81,0.00,,,0.00,WUHU216TE923,2013-06-01 06:06:00,
2013-06-01 02:11:00,71.1,65.0,30.00,WNW,293,0.0,0.1,81,0.00,,,0.00,WUHU216TE923,2013-06-01 06:11:00,
2013-06-01 02:16:00,71.1,65.0,30.00,WSW,248,0.3,1.5,81,0.00,,,0.00,WUHU216TE923,2013-06-01 06:16:00,
2013-06-01 02:21:00,71.1,65.0,29.98,SW,225,0.7,2.1,81,0.00,,,0.00,WUHU216TE923,2013-06-01 06:21:00,
2013-06-01 02:26:00,71.1,65.0,29.98,West,270,1.1,2.1,81,0.00,,,0.00,WUHU216TE923,2013-06-01 06:26:00,
2013-06-01 02:31:00,71.4,65.0,29.98,NW,315,1.8,2.1,80,0.00,,,0.00,WUHU216TE923,2013-06-01 06:31:00,
2013-06-01 02:36:00,71.4,65.0,29.98,WSW,248,1.8,2.3,80,0.00,,,0.00,WUHU216TE923,2013-06-01 06:36:00,
2013-06-01 02:41:00,71.4,65.0,29.98,WSW,248,1.8,2.5,80,0.00,,,0.00,WUHU216TE923,2013-06-01 06:41:00,
2013-06-01 02:46:00,71.6,64.8,29.98,WSW,248,1.9,2.5,79,0.00,,,0.00,WUHU216TE923,2013-06-01 06:46:00,
2013-06-01 02:51:00,71.8,65.0,29.98,WSW,248,2.0,2.7,79,0.00,,,0.00,WUHU216TE923,2013-06-01 06:51:00,
2013-06-01 02:56:00,71.8,65.0,29.98,West,270,2.2,3.2,79,0.00,,,0.00,WUHU216TE923,2013-06-01 06:56:00,
2013-06-01 03:01:00,72.1,65.0,29.98,SW,225,2.5,3.2,78,0.00,,,0.00,WUHU216TE923,2013-06-01 07:01:00,
2013-06-01 03:06:00,72.1,65.0,29.98,WSW,248,2.6,2.6,78,0.00,,,0.00,WUHU216TE923,2013-06-01 07:06:00,
2013-06-01 03:11:00,72.1,65.0,29.98,WSW,248,2.6,2.6,78,0.00,,,0.00,WUHU216TE923,2013-06-01 07:11:00,
2013-06-01 03:16:00,72.1,65.0,29.98,WSW,248,2.6,2.6,78,0.00,,,0.00,WUHU216TE923,2013-06-01 07:16:00,
2013-06-01 03:21:00,72.3,64.8,29.97,WSW,248,2.6,4.0,77,0.00,,,0.00,WUHU216TE923,2013-06-01 07:21:00,
2013-06-01 03:26:00,72.3,64.8,29.97,WSW,248,2.8,4.0,77,0.00,,,0.00,WUHU216TE923,2013-06-01 07:26:00,
2013-06-01 03:31:00,72.5,65.0,29.97,SW,225,3.2,4.4,77,0.00,,,0.00,WUHU216TE923,2013-06-01 07:31:00,
2013-06-01 03:36:00,72.5,65.0,29.97,WSW,248,3.1,4.4,77,0.00,,,0.00,WUHU216TE923,2013-06-01 07:36:00,
2013-06-01 03:41:00,72.5,65.0,29.96,WNW,293,2.7,4.0,77,0.00,,,0.00,WUHU216TE923,2013-06-01 07:41:00,
2013-06-01 03:46:00,72.3,64.8,29.96,SW,225,2.8,4.0,77,0.00,,,0.00,WUHU216TE923,2013-06-01 07:46:00,
2013-06-01 03:51:00,72.5,65.0,29.96,SW,225,2.9,3.1,77,0.00,,,0.00,WUHU216TE923,2013-06-01 07:51:00,
2013-06-01 03:56:00,72.5,64.6,29.96,SW,225,2.7,4.0,76,0.00,,,0.00,WUHU216TE923,2013-06-01 07:56:00,
2013-06-01 04:01:00,72.3,64.8,29.96,WSW,248,2.4,4.0,77,0.00,,,0.00,WUHU216TE923,2013-06-01 08:01:00,
2013-06-01 04:06:00,72.3,64.4,29.96,WSW,248,2.6,3.1,76,0.00,,,0.00,WUHU216TE923,2013-06-01 08:06:00,
2013-06-01 04:11:00,72.3,64.4,29.96,West,270,2.5,3.7,76,0.00,,,0.00,WUHU216TE923,2013-06-01 08:11:00,
2013-06-01 04:16:00,72.3,64.8,29.96,WSW,248,2.2,3.7,77,0.00,,,0.00,WUHU216TE923,2013-06-01 08:16:00,
2013-06-01 04:21:00,72.3,64.4,29.96,WSW,248,2.4,2.4,76,0.00,,,0.00,WUHU216TE923,2013-06-01 08:21:00,
2013-06-01 04:26:00,72.3,64.4,29.96,SSW,203,2.1,2.4,76,0.00,,,0.00,WUHU216TE923,2013-06-01 08:26:00,
2013-06-01 04:31:00,72.3,64.4,29.96,WSW,248,1.9,2.1,76,0.00,,,0.00,WUHU216TE923,2013-06-01 08:31:00,
2013-06-01 04:36:00,72.3,64.4,29.96,West,270,1.8,2.8,76,0.00,,,0.00,WUHU216TE923,2013-06-01 08:36:00,
2013-06-01 04:41:00,72.1,64.3,29.95,West,270,1.8,2.8,76,0.00,,,0.00,WUHU216TE923,2013-06-01 08:41:00,
2013-06-01 04:46:00,72.1,64.3,29.95,WSW,248,1.7,2.6,76,0.00,,,0.00,WUHU216TE923,2013-06-01 08:46:00,
2013-06-01 04:51:00,72.0,64.5,29.95,West,270,1.7,2.0,77,0.00,,,0.00,WUHU216TE923,2013-06-01 08:51:00,
2013-06-01 04:56:00,72.0,64.5,29.95,WSW,248,1.6,2.0,77,0.00,,,0.00,WUHU216TE923,2013-06-01 08:56:00,
2013-06-01 05:01:00,72.1,64.6,29.95,WSW,248,1.5,1.9,77,0.00,,,0.00,WUHU216TE923,2013-06-01 09:01:00,
2013-06-01 05:05:00,72.0,64.5,29.95,WSW,248,1.7,1.7,77,0.00,,,0.00,WUHU216TE923,2013-06-01 09:05:00,
2013-06-01 05:10:00,71.8,64.0,29.95,WNW,293,1.4,1.7,76,0.00,,,0.00,WUHU216TE923,2013-06-01 09:10:00,
2013-06-01 05:15:00,71.8,64.3,29.95,WSW,248,1.0,1.7,77,0.00,,,0.00,WUHU216TE923,2013-06-01 09:15:00,
2013-06-01 05:20:00,71.6,64.1,29.95,WNW,293,0.9,2.5,77,0.00,,,0.00,WUHU216TE923,2013-06-01 09:20:00,
2013-06-01 05:25:00,71.6,64.1,29.95,WSW,248,1.0,2.5,77,0.00,,,0.00,WUHU216TE923,2013-06-01 09:25:00,
2013-06-01 05:30:00,71.6,64.1,29.95,West,270,1.0,1.4,77,0.00,,,0.00,WUHU216TE923,2013-06-01 09:30:00,
2013-06-01 05:35:00,71.6,64.1,29.95,WSW,248,0.9,1.6,77,0.00,,,0.00,WUHU216TE923,2013-06-01 09:35:00,
2013-06-01 05:40:00,71.4,63.9,29.93,SW,225,1.1,2.6,77,0.00,,,0.00,WUHU216TE923,2013-06-01 09:40:00,
2013-06-01 05:45:00,71.2,63.7,29.93,WSW,248,1.7,3.8,77,0.00,,,0.00,WUHU216TE923,2013-06-01 09:45:00,
2013-06-01 05:50:00,71.4,64.3,29.93,WNW,293,2.2,3.8,78,0.00,,,0.00,WUHU216TE923,2013-06-01 09:50:00,
2013-06-01 05:55:00,71.4,64.3,29.93,West,270,2.0,2.2,78,0.00,,,0.00,WUHU216TE923,2013-06-01 09:55:00,
2013-06-01 06:00:00,71.2,64.1,29.94,SW,225,1.5,2.0,78,0.00,,,0.00,WUHU216TE923,2013-06-01 10:00:00,
2013-06-01 06:05:00,71.1,64.0,29.94,West,270,1.3,1.6,78,0.00,,,0.00,WUHU216TE923,2013-06-01 10:05:00,
2013-06-01 06:10:00,71.1,64.0,29.94,West,270,1.3,1.6,78,0.00,,,0.00,WUHU216TE923,2013-06-01 10:10:00,
2013-06-01 06:15:00,71.1,64.0,29.94,West,270,1.3,1.6,78,0.00,,,0.00,WUHU216TE923,2013-06-01 10:15:00,
2013-06-01 06:20:00,70.9,63.8,29.93,West,270,0.5,1.7,78,0.00,,,0.00,WUHU216TE923,2013-06-01 10:20:00,
2013-06-01 06:25:00,70.7,63.6,29.93,SW,225,0.7,1.7,78,0.00,,,0.00,WUHU216TE923,2013-06-01 10:25:00,
2013-06-01 06:30:00,70.7,63.6,29.93,WSW,248,0.7,1.7,78,0.00,,,0.00,WUHU216TE923,2013-06-01 10:30:00,
2013-06-01 06:35:00,70.7,63.6,29.93,SW,225,0.6,1.2,78,0.00,,,0.00,WUHU216TE923,2013-06-01 10:35:00,
2013-06-01 06:40:00,70.7,63.6,29.93,West,270,0.6,1.3,78,0.00,,,0.00,WUHU216TE923,2013-06-01 10:40:00,
2013-06-01 06:45:00,70.7,63.6,29.93,West,270,0.7,1.8,78,0.00,,,0.00,WUHU216TE923,2013-06-01 10:45:00,
2013-06-01 06:50:00,70.7,63.6,29.93,ESE,113,0.6,1.8,78,0.00,,,0.00,WUHU216TE923,2013-06-01 10:50:00,
2013-06-01 06:55:00,70.5,63.4,29.93,WSW,248,0.6,1.2,78,0.00,,,0.00,WUHU216TE923,2013-06-01 10:55:00,
2013-06-01 07:00:00,70.7,63.6,29.93,WNW,293,0.5,1.0,78,0.00,,,0.00,WUHU216TE923,2013-06-01 11:00:00,
2013-06-01 07:05:00,70.7,64.0,29.93,West,270,0.7,1.6,79,0.00,,,0.00,WUHU216TE923,2013-06-01 11:05:00,
2013-06-01 07:10:00,70.5,63.8,29.93,SW,225,1.5,1.8,79,0.00,,,0.00,WUHU216TE923,2013-06-01 11:10:00,
2013-06-01 07:15:00,70.5,63.8,29.93,West,270,1.5,2.5,79,0.00,,,0.00,WUHU216TE923,2013-06-01 11:15:00,
2013-06-01 07:20:00,70.7,64.0,29.95,WSW,248,0.8,2.5,79,0.00,,,0.00,WUHU216TE923,2013-06-01 11:20:00,
2013-06-01 07:25:00,70.7,64.0,29.95,West,270,0.7,1.4,79,0.00,,,0.00,WUHU216TE923,2013-06-01 11:25:00,
2013-06-01 07:30:00,70.7,64.0,29.95,West,270,0.4,1.4,79,0.00,,,0.00,WUHU216TE923,2013-06-01 11:30:00,
2013-06-01 07:35:00,70.5,63.8,29.95,WSW,248,0.3,0.4,79,0.00,,,0.00,WUHU216TE923,2013-06-01 11:35:00,
2013-06-01 07:40:00,70.5,63.8,29.95,WSW,248,0.1,0.3,79,0.00,,,0.00,WUHU216TE923,2013-06-01 11:40:00,
2013-06-01 07:45:00,70.5,63.8,29.95,WNW,293,0.1,0.1,79,0.00,,,0.00,WUHU216TE923,2013-06-01 11:45:00,
2013-06-01 07:50:00,70.7,64.3,29.95,WNW,293,0.2,0.2,80,0.00,,,0.00,WUHU216TE923,2013-06-01 11:50:00,
2013-06-01 07:55:00,70.9,64.5,29.95,WNW,293,0.3,1.6,80,0.00,,,0.00,WUHU216TE923,2013-06-01 11:55:00,
2013-06-01 08:00:00,71.1,64.7,29.96,SW,225,0.7,1.6,80,0.00,,,0.00,WUHU216TE923,2013-06-01 12:00:00,
2013-06-01 08:05:00,71.1,64.4,29.96,WSW,248,1.1,2.3,79,0.00,,,0.00,WUHU216TE923,2013-06-01 12:05:00,
2013-06-01 08:10:00,71.4,64.6,29.96,SW,225,1.4,2.3,79,0.00,,,0.00,WUHU216TE923,2013-06-01 12:10:00,
2013-06-01 08:15:00,71.4,64.6,29.96,WSW,248,1.6,2.1,79,0.00,,,0.00,WUHU216TE923,2013-06-01 12:15:00,
2013-06-01 08:20:00,71.6,64.8,29.96,WNW,293,1.5,2.1,79,0.00,,,0.00,WUHU216TE923,2013-06-01 12:20:00,
2013-06-01 08:25:00,71.6,64.8,29.96,SSW,203,1.8,1.9,79,0.00,,,0.00,WUHU216TE923,2013-06-01 12:25:00,
2013-06-01 08:30:00,71.8,65.0,29.96,NW,315,1.8,2.3,79,0.00,,,0.00,WUHU216TE923,2013-06-01 12:30:00,
2013-06-01 08:35:00,71.8,65.0,29.96,SW,225,1.5,2.3,79,0.00,,,0.00,WUHU216TE923,2013-06-01 12:35:00,
2013-06-01 08:40:00,72.0,65.2,29.98,West,270,1.5,2.4,79,0.00,,,0.00,WUHU216TE923,2013-06-01 12:40:00,
2013-06-01 08:45:00,72.1,65.3,29.98,WSW,248,1.6,2.4,79,0.00,,,0.00,WUHU216TE923,2013-06-01 12:45:00,
2013-06-01 08:50:00,72.3,65.5,29.98,WSW,248,1.7,1.9,79,0.00,,,0.00,WUHU216TE923,2013-06-01 12:50:00,
2013-06-01 08:55:00,72.3,65.5,29.98,SW,225,1.8,1.8,79,0.00,,,0.00,WUHU216TE923,2013-06-01 12:55:00,
2013-06-01 09:00:00,72.5,65.4,29.97,NNW,338,1.7,2.5,78,0.00,,,0.00,WUHU216TE923,2013-06-01 13:00:00,
2013-06-01 09:05:00,72.7,65.6,29.97,SW,225,2.0,3.0,78,0.00,,,0.00,WUHU216TE923,2013-06-01 13:05:00,
2013-06-01 09:10:00,72.9,65.8,29.97,WSW,248,1.8,3.0,78,0.00,,,0.00,WUHU216TE923,2013-06-01 13:10:00,
2013-06-01 09:15:00,72.9,65.8,29.97,West,270,1.4,1.8,78,0.00,,,0.00,WUHU216TE923,2013-06-01 13:15:00,
2013-06-01 09:20:00,73.2,66.0,29.97,SW,225,1.6,4.1,78,0.00,,,0.00,WUHU216TE923,2013-06-01 13:20:00,
2013-06-01 09:25:00,73.2,66.0,29.97,SW,225,1.9,4.1,78,0.00,,,0.00,WUHU216TE923,2013-06-01 13:25:00,
2013-06-01 09:30:00,73.2,66.0,29.97,SW,225,2.1,2.4,78,0.00,,,0.00,WUHU216TE923,2013-06-01 13:30:00,
2013-06-01 09:35:00,73.2,66.0,29.97,West,270,1.9,2.9,78,0.00,,,0.00,WUHU216TE923,2013-06-01 13:35:00,
2013-06-01 09:40:00,73.4,66.2,29.97,West,270,2.1,2.9,78,0.00,,,0.00,WUHU216TE923,2013-06-01 13:40:00,
2013-06-01 09:45:00,73.6,66.1,29.97,WSW,248,1.8,2.4,77,0.00,,,0.00,WUHU216TE923,2013-06-01 13:45:00,
2013-06-01 09:50:00,73.9,66.0,29.97,WSW,248,2.7,5.1,76,0.00,,,0.00,WUHU216TE923,2013-06-01 13:50:00,
2013-06-01 09:55:00,74.3,66.4,29.97,NW,315,3.3,5.1,76,0.00,,,0.00,WUHU216TE923,2013-06-01 13:55:00,
2013-06-01 10:00:00,74.3,66.0,29.98,WSW,248,3.0,4.1,75,0.00,,,0.00,WUHU216TE923,2013-06-01 14:00:00,
2013-06-01 10:05:00,74.7,66.8,29.98,WSW,248,3.3,4.5,76,0.00,,,0.00,WUHU216TE923,2013-06-01 14:05:00,
2013-06-01 10:10:00,74.5,66.2,29.98,WSW,248,3.9,5.6,75,0.00,,,0.00,WUHU216TE923,2013-06-01 14:10:00,
2013-06-01 10:15:00,74.7,66.0,29.98,WSW,248,4.1,7.4,74,0.00,,,0.00,WUHU216TE923,2013-06-01 14:15:00,
2013-06-01 10:20:00,75.0,66.3,29.97,WSW,248,4.6,7.4,74,0.00,,,0.00,WUHU216TE923,2013-06-01 14:20:00,
2013-06-01 10:25:00,75.2,66.5,29.97,West,270,4.9,5.7,74,0.00,,,0.00,WUHU216TE923,2013-06-01 14:25:00,
2013-06-01 10:30:00,75.9,66.8,29.97,South,180,4.9,5.7,73,0.00,,,0.00,WUHU216TE923,2013-06-01 14:30:00,
2013-06-01 10:35:00,76.1,66.6,29.97,West,270,5.5,10.6,72,0.00,,,0.00,WUHU216TE923,2013-06-01 14:35:00,
2013-06-01 10:40:00,76.6,67.1,29.98,West,270,6.6,10.6,72,0.00,,,0.00,WUHU216TE923,2013-06-01 14:40:00,
2013-06-01 10:45:00,76.8,66.5,29.98,SW,225,7.5,11.1,70,0.00,,,0.00,WUHU216TE923,2013-06-01 14:45:00,
2013-06-01 10:50:00,77.2,66.9,29.98,West,270,7.9,11.1,70,0.00,,,0.00,WUHU216TE923,2013-06-01 14:50:00,
2013-06-01 10:55:00,77.4,67.1,29.98,WSW,248,8.2,14.2,70,0.00,,,0.00,WUHU216TE923,2013-06-01 14:55:00,
2013-06-01 11:00:00,77.5,67.2,29.99,SW,225,7.8,16.7,70,0.00,,,0.00,WUHU216TE923,2013-06-01 15:00:00,
2013-06-01 11:05:00,77.9,67.5,29.99,SSE,158,8.0,16.7,70,0.00,,,0.00,WUHU216TE923,2013-06-01 15:05:00,
2013-06-01 11:10:00,77.5,67.2,29.99,South,180,7.7,10.3,70,0.00,,,0.00,WUHU216TE923,2013-06-01 15:10:00,
2013-06-01 11:15:00,77.5,67.2,29.99,West,270,7.4,12.6,70,0.00,,,0.00,WUHU216TE923,2013-06-01 15:15:00,
2013-06-01 11:20:00,77.5,66.7,30.00,West,270,8.2,12.6,69,0.00,,,0.00,WUHU216TE923,2013-06-01 15:20:00,
2013-06-01 11:25:00,77.4,66.6,30.00,NNW,338,8.0,9.4,69,0.00,,,0.00,WUHU216TE923,2013-06-01 15:25:00,
2013-06-01 11:30:00,77.5,67.2,30.00,SW,225,7.2,8.0,70,0.00,,,0.00,WUHU216TE923,2013-06-01 15:30:00,
2013-06-01 11:35:00,77.7,67.3,30.00,SSW,203,6.4,7.7,70,0.00,,,0.00,WUHU216TE923,2013-06-01 15:35:00,
2013-06-01 11:40:00,77.9,67.1,30.00,WSW,248,6.6,8.0,69,0.00,,,0.00,WUHU216TE923,2013-06-01 15:40:00,
2013-06-01 11:45:00,78.1,67.7,30.00,West,270,6.0,8.0,70,0.00,,,0.00,WUHU216TE923,2013-06-01 15:45:00,
2013-06-01 11:50:00,78.1,66.9,30.00,North,0,6.2,8.4,68,0.00,,,0.00,WUHU216TE923,2013-06-01 15:50:00,
2013-06-01 11:55:00,78.3,67.1,30.00,West,270,6.5,8.4,68,0.00,,,0.00,WUHU216TE923,2013-06-01 15:55:00,
2013-06-01 12:00:00,78.3,67.5,30.00,West,270,6.4,6.5,69,0.00,,,0.00,WUHU216TE923,2013-06-01 16:00:00,
2013-06-01 12:05:00,78.3,67.5,30.00,WSW,248,5.7,6.4,69,0.00,,,0.00,WUHU216TE923,2013-06-01 16:05:00,
2013-06-01 12:10:00,78.3,67.5,30.00,WSW,248,5.7,5.7,69,0.00,,,0.00,WUHU216TE923,2013-06-01 16:10:00,
2013-06-01 12:15:00,78.3,67.5,30.00,WSW,248,5.7,5.7,69,0.00,,,0.00,WUHU216TE923,2013-06-01 16:15:00,
2013-06-01 12:20:00,77.4,67.1,29.99,WSW,248,5.4,5.7,70,0.00,,,0.00,WUHU216TE923,2013-06-01 16:20:00,
2013-06-01 12:25:00,77.5,67.2,29.99,WSW,248,4.6,5.4,70,0.00,,,0.00,WUHU216TE923,2013-06-01 16:25:00,
2013-06-01 12:30:00,77.4,67.1,29.99,WSW,248,3.9,5.2,70,0.00,,,0.00,WUHU216TE923,2013-06-01 16:30:00,
2013-06-01 12:35:00,77.5,67.2,29.99,WNW,293,4.6,7.9,70,0.00,,,0.00,WUHU216TE923,2013-06-01 16:35:00,
2013-06-01 12:40:00,77.5,67.2,29.98,NW,315,5.1,7.9,70,0.00,,,0.00,WUHU216TE923,2013-06-01 16:40:00,
2013-06-01 12:45:00,77.4,67.5,29.98,WSW,248,4.6,5.1,71,0.00,,,0.00,WUHU216TE923,2013-06-01 16:45:00,
2013-06-01 12:50:00,77.2,67.7,29.98,West,270,3.3,4.6,72,0.00,,,0.00,WUHU216TE923,2013-06-01 16:50:00,
2013-06-01 12:55:00,77.2,67.7,29.98,West,270,3.1,4.3,72,0.00,,,0.00,WUHU216TE923,2013-06-01 16:55:00,
2013-06-01 13:00:00,77.2,68.1,29.98,WSW,248,3.1,4.3,73,0.00,,,0.00,WUHU216TE923,2013-06-01 17:00:00,
2013-06-01 13:05:00,77.2,68.1,29.98,West,270,3.3,8.7,73,0.00,,,0.00,WUHU216TE923,2013-06-01 17:05:00,
2013-06-01 13:10:00,77.5,68.0,29.98,West,270,5.0,8.7,72,0.00,,,0.00,WUHU216TE923,2013-06-01 17:10:00,
2013-06-01 13:15:00,77.5,68.0,29.98,West,270,5.8,6.0,72,0.00,,,0.00,WUHU216TE923,2013-06-01 17:15:00,
2013-06-01 13:20:00,77.5,68.0,29.96,West,270,4.6,6.0,72,0.00,,,0.00,WUHU216TE923,2013-06-01 17:20:00,
2013-06-01 13:25:00,77.5,68.0,29.96,West,270,4.5,5.3,72,0.00,,,0.00,WUHU216TE923,2013-06-01 17:25:00,
2013-06-01 13:30:00,77.9,68.3,29.96,NW,315,4.1,4.5,72,0.00,,,0.00,WUHU216TE923,2013-06-01 17:30:00,
2013-06-01 13:35:00,77.9,68.3,29.96,WSW,248,3.5,5.5,72,0.00,,,0.00,WUHU216TE923,2013-06-01 17:35:00,
2013-06-01 13:40:00,78.1,68.1,29.96,West,270,4.0,6.0,71,0.00,,,0.00,WUHU216TE923,2013-06-01 17:40:00,
2013-06-01 13:45:00,78.1,68.1,29.96,WSW,248,4.5,6.0,71,0.00,,,0.00,WUHU216TE923,2013-06-01 17:45:00,
2013-06-01 13:50:00,78.4,68.4,29.96,WSW,248,4.6,7.0,71,0.00,,,0.00,WUHU216TE923,2013-06-01 17:50:00,
2013-06-01 13:55:00,78.8,69.2,29.96,West,270,4.3,7.0,72,0.00,,,0.00,WUHU216TE923,2013-06-01 17:55:00,
2013-06-01 13:59:00,79.3,69.7,29.95,WSW,248,3.8,5.4,72,0.00,,,0.00,WUHU216TE923,2013-06-01 17:59:00,
2013-06-01 14:04:00,79.0,69.4,29.95,WSW,248,3.3,4.1,72,0.00,,,0.00,WUHU216TE923,2013-06-01 18:04:00,
2013-06-01 14:09:00,79.3,69.7,29.95,NNW,338,2.9,4.0,72,0.00,,,0.00,WUHU216TE923,2013-06-01 18:09:00,
2013-06-01 14:14:00,79.3,68.9,29.95,SW,225,3.7,5.7,70,0.00,,,0.00,WUHU216TE923,2013-06-01 18:14:00,
2013-06-01 14:19:00,79.3,68.9,29.95,SW,225,4.8,5.7,70,0.00,,,0.00,WUHU216TE923,2013-06-01 18:19:00,
2013-06-01 14:24:00,79.7,69.3,29.95,West,270,4.8,6.0,70,0.00,,,0.00,WUHU216TE923,2013-06-01 18:24:00,
2013-06-01 14:29:00,80.1,69.2,29.95,NNW,338,4.9,6.0,69,0.00,,,0.00,WUHU216TE923,2013-06-01 18:29:00,
2013-06-01 14:34:00,79.7,68.4,29.95,SW,225,5.3,6.9,68,0.00,,,0.00,WUHU216TE923,2013-06-01 18:34:00,
2013-06-01 14:39:00,80.2,69.3,29.95,WSW,248,5.2,6.9,69,0.00,,,0.00,WUHU216TE923,2013-06-01 18:39:00,
2013-06-01 14:44:00,80.4,69.5,29.95,West,270,5.0,6.2,69,0.00,,,0.00,WUHU216TE923,2013-06-01 18:44:00,
2013-06-01 14:49:00,80.2,68.9,29.95,WSW,248,5.2,5.4,68,0.00,,,0.00,WUHU216TE923,2013-06-01 18:49:00,
2013-06-01 14:54:00,80.4,69.1,29.95,SW,225,5.0,5.4,68,0.00,,,0.00,WUHU216TE923,2013-06-01 18:54:00,
2013-06-01 14:59:00,80.8,69.5,29.94,West,270,4.9,5.0,68,0.00,,,0.00,WUHU216TE923,2013-06-01 18:59:00,
2013-06-01 15:04:00,80.4,69.1,29.94,West,270,4.7,4.9,68,0.00,,,0.00,WUHU216TE923,2013-06-01 19:04:00,
2013-06-01 15:09:00,80.2,68.9,29.94,West,270,4.3,5.6,68,0.00,,,0.00,WUHU216TE923,2013-06-01 19:09:00,
2013-06-01 15:14:00,80.4,69.1,29.94,West,270,4.6,5.6,68,0.00,,,0.00,WUHU216TE923,2013-06-01 19:14:00,
2013-06-01 15:19:00,79.9,69.0,29.94,SW,225,4.4,4.6,69,0.00,,,0.00,WUHU216TE923,2013-06-01 19:19:00,
2013-06-01 15:24:00,79.5,69.1,29.94,West,270,3.5,4.4,70,0.00,,,0.00,WUHU216TE923,2013-06-01 19:24:00,
2013-06-01 15:29:00,79.3,69.3,29.94,West,270,3.0,3.9,71,0.00,,,0.00,WUHU216TE923,2013-06-01 19:29:00,
2013-06-01 15:34:00,79.3,69.3,29.94,WNW,293,2.9,3.9,71,0.00,,,0.00,WUHU216TE923,2013-06-01 19:34:00,
2013-06-01 15:39:00,79.3,69.7,29.94,WNW,293,2.4,3.4,72,0.00,,,0.00,WUHU216TE923,2013-06-01 19:39:00,
2013-06-01 15:44:00,79.3,69.7,29.94,WSW,248,2.0,2.7,72,0.00,,,0.00,WUHU216TE923,2013-06-01 19:44:00,
2013-06-01 15:49:00,79.3,70.1,29.94,WSW,248,1.9,2.7,73,0.00,,,0.00,WUHU216TE923,2013-06-01 19:49:00,
2013-06-01 15:54:00,79.2,70.0,29.94,WSW,248,2.1,2.4,73,0.00,,,0.00,WUHU216TE923,2013-06-01 19:54:00,
2013-06-01 15:59:00,79.3,70.1,29.92,West,270,1.6,2.4,73,0.00,,,0.00,WUHU216TE923,2013-06-01 19:59:00,
2013-06-01 16:04:00,79.7,70.9,29.92,WSW,248,1.6,2.5,74,0.00,,,0.00,WUHU216TE923,2013-06-01 20:04:00,
2013-06-01 16:09:00,79.7,70.5,29.92,West,270,1.7,2.5,73,0.00,,,0.00,WUHU216TE923,2013-06-01 20:09:00,
2013-06-01 16:14:00,79.5,70.3,29.92,WSW,248,1.7,2.1,73,0.00,,,0.00,WUHU216TE923,2013-06-01 20:14:00,
2013-06-01 16:19:00,79.3,70.1,29.90,West,270,1.0,2.1,73,0.00,,,0.00,WUHU216TE923,2013-06-01 20:19:00,
2013-06-01 16:24:00,79.3,70.5,29.90,WSW,248,1.0,2.7,74,0.00,,,0.00,WUHU216TE923,2013-06-01 20:24:00,
2013-06-01 16:29:00,79.3,70.9,29.90,ESE,113,1.2,2.7,75,0.00,,,0.00,WUHU216TE923,2013-06-01 20:29:00,
2013-06-01 16:34:00,79.3,71.2,29.90,SW,225,1.1,1.4,76,0.00,,,0.00,WUHU216TE923,2013-06-01 20:34:00,
2013-06-01 16:39:00,79.3,70.5,29.89,WSW,248,1.4,1.5,74,0.00,,,0.00,WUHU216TE923,2013-06-01 20:39:00,
2013-06-01 16:44:00,79.3,70.9,29.89,West,270,2.1,3.0,75,0.00,,,0.00,WUHU216TE923,2013-06-01 20:44:00,
2013-06-01 16:49:00,79.5,71.1,29.89,West,270,2.6,8.4,75,0.00,,,0.00,WUHU216TE923,2013-06-01 20:49:00,
2013-06-01 16:54:00,79.9,70.3,29.89,South,180,3.1,8.4,72,0.00,,,0.00,WUHU216TE923,2013-06-01 20:54:00,
2013-06-01 16:59:00,80.4,69.5,29.88,WSW,248,4.4,5.5,69,0.00,,,0.00,WUHU216TE923,2013-06-01 20:59:00,
2013-06-01 17:04:00,80.4,69.1,29.88,WNW,293,4.9,6.2,68,0.00,,,0.00,WUHU216TE923,2013-06-01 21:04:00,
2013-06-01 17:09:00,80.6,69.3,29.88,WNW,293,5.1,6.8,68,0.00,,,0.00,WUHU216TE923,2013-06-01 21:09:00,
2013-06-01 17:14:00,79.9,69.0,29.88,SW,225,5.3,6.8,69,0.00,,,0.00,WUHU216TE923,2013-06-01 21:14:00,
2013-06-01 17:19:00,79.7,69.7,29.87,WSW,248,4.2,5.3,71,0.00,,,0.00,WUHU216TE923,2013-06-01 21:19:00,
2013-06-01 17:24:00,80.1,70.1,29.87,SW,225,3.6,6.3,71,0.00,,,0.00,WUHU216TE923,2013-06-01 21:24:00,
2013-06-01 17:29:00,80.6,69.7,29.87,West,270,4.5,6.3,69,0.00,,,0.00,WUHU216TE923,2013-06-01 21:29:00,
2013-06-01 17:34:00,80.8,69.5,29.87,WSW,248,5.0,6.2,68,0.00,,,0.00,WUHU216TE923,2013-06-01 21:34:00,
2013-06-01 17:39:00,80.8,69.9,29.88,WSW,248,4.8,6.2,69,0.00,,,0.00,WUHU216TE923,2013-06-01 21:39:00,
2013-06-01 17:44:00,80.8,70.3,29.88,West,270,4.0,4.8,70,0.00,,,0.00,WUHU216TE923,2013-06-01 21:44:00,
2013-06-01 17:49:00,80.8,69.9,29.88,WSW,248,3.3,4.0,69,0.00,,,0.00,WUHU216TE923,2013-06-01 21:49:00,
2013-06-01 17:54:00,80.8,70.3,29.88,West,270,3.2,3.3,70,0.00,,,0.00,WUHU216TE923,2013-06-01 21:54:00,
2013-06-01 17:59:00,81.1,69.3,29.88,West,270,4.3,8.3,67,0.00,,,0.00,WUHU216TE923,2013-06-01 21:59:00,
2013-06-01 18:04:00,81.1,68.9,29.88,WSW,248,5.3,8.3,66,0.00,,,0.00,WUHU216TE923,2013-06-01 22:04:00,
2013-06-01 18:09:00,81.0,68.4,29.88,WNW,293,5.5,5.9,65,0.00,,,0.00,WUHU216TE923,2013-06-01 22:09:00,
2013-06-01 18:14:00,81.0,68.4,29.88,West,270,5.0,8.2,65,0.00,,,0.00,WUHU216TE923,2013-06-01 22:14:00,
2013-06-01 18:19:00,80.6,68.4,29.88,NNE,23,4.8,8.2,66,0.00,,,0.00,WUHU216TE923,2013-06-01 22:19:00,
2013-06-01 18:24:00,80.4,69.1,29.88,NNW,338,4.5,7.7,68,0.00,,,0.00,WUHU216TE923,2013-06-01 22:24:00,
2013-06-01 18:29:00,79.9,68.6,29.88,West,270,4.5,7.7,68,0.00,,,0.00,WUHU216TE923,2013-06-01 22:29:00,
2013-06-01 18:34:00,79.5,68.7,29.88,WSW,248,5.0,8.8,69,0.00,,,0.00,WUHU216TE923,2013-06-01 22:34:00,
2013-06-01 18:37:00,79.3,68.5,29.89,West,270,5.6,8.8,69,0.00,,,0.00,WUHU216TE923,2013-06-01 22:37:00,
2013-06-01 18:39:00,79.3,68.5,29.89,West,270,5.6,8.8,69,0.00,,,0.00,WUHU216TE923,2013-06-01 22:39:00,
2013-06-01 18:43:00,79.0,68.6,29.89,West,270,5.8,9.8,70,0.00,,,0.00,WUHU216TE923,2013-06-01 22:43:00,
2013-06-01 18:47:00,78.3,67.1,29.89,SW,225,6.2,9.8,68,0.00,,,0.00,WUHU216TE923,2013-06-01 22:47:00,
2013-06-01 18:53:00,77.5,67.2,29.89,WSW,248,6.2,7.0,70,0.00,,,0.00,WUHU216TE923,2013-06-01 22:53:00,
2013-06-01 18:57:00,76.8,68.1,29.89,West,270,4.9,6.2,74,0.00,,,0.00,WUHU216TE923,2013-06-01 22:57:00,
2013-06-01 19:03:00,76.3,68.0,29.89,West,270,4.1,5.1,75,0.00,,,0.00,WUHU216TE923,2013-06-01 23:03:00,
2013-06-01 19:07:00,75.9,68.3,29.89,WSW,248,2.4,4.1,77,0.00,,,0.00,WUHU216TE923,2013-06-01 23:07:00,
2013-06-01 19:17:00,75.4,68.5,29.87,West,270,1.7,2.6,79,0.00,,,0.00,WUHU216TE923,2013-06-01 23:17:00,
2013-06-01 19:23:00,75.4,68.5,29.87,WSW,248,1.6,2.3,79,0.00,,,0.00,WUHU216TE923,2013-06-01 23:23:00,
2013-06-01 19:28:00,75.0,68.5,29.87,WSW,248,1.1,2.3,80,0.00,,,0.00,WUHU216TE923,2013-06-01 23:28:00,
2013-06-01 19:33:00,75.0,68.5,29.87,WSW,248,0.8,1.6,80,0.00,,,0.00,WUHU216TE923,2013-06-01 23:33:00,
2013-06-01 19:38:00,75.0,68.9,29.87,SW,225,0.8,1.4,81,0.00,,,0.00,WUHU216TE923,2013-06-01 23:38:00,
2013-06-01 19:43:00,75.0,68.9,29.87,SW,225,0.8,1.4,81,0.00,,,0.00,WUHU216TE923,2013-06-01 23:43:00,
2013-06-01 19:48:00,75.0,69.2,29.87,West,270,1.6,2.4,82,0.00,,,0.00,WUHU216TE923,2013-06-01 23:48:00,
2013-06-01 19:53:00,75.0,69.2,29.87,West,270,1.6,2.4,82,0.00,,,0.00,WUHU216TE923,2013-06-01 23:53:00,
2013-06-01 19:58:00,74.7,69.3,29.85,WSW,248,2.4,3.4,83,0.00,,,0.00,WUHU216TE923,2013-06-01 23:58:00,
2013-06-01 20:03:00,74.7,69.3,29.85,WSW,248,2.4,3.4,83,0.00,,,0.00,WUHU216TE923,2013-06-02 00:03:00,
2013-06-01 20:08:00,74.7,69.3,29.85,WSW,248,2.3,4.0,83,0.00,,,0.00,WUHU216TE923,2013-06-02 00:08:00,
2013-06-01 20:13:00,74.7,69.3,29.85,WSW,248,2.3,4.0,83,0.00,,,0.00,WUHU216TE923,2013-06-02 00:13:00,
2013-06-01 20:18:00,74.5,69.4,29.83,West,270,2.9,5.9,84,0.00,,,0.00,WUHU216TE923,2013-06-02 00:18:00,
2013-06-01 20:23:00,74.5,69.4,29.83,West,270,2.9,5.9,84,0.00,,,0.00,WUHU216TE923,2013-06-02 00:23:00,
2013-06-01 20:28:00,74.3,69.2,29.83,WSW,248,3.4,5.9,84,0.00,,,0.00,WUHU216TE923,2013-06-02 00:28:00,
2013-06-01 20:33:00,74.3,69.2,29.83,WSW,248,3.4,5.9,84,0.00,,,0.00,WUHU216TE923,2013-06-02 00:33:00,
2013-06-01 20:38:00,74.1,69.3,29.82,WSW,248,3.2,3.8,85,0.00,,,0.00,WUHU216TE923,2013-06-02 00:38:00,
2013-06-01 20:43:00,74.1,69.3,29.82,WSW,248,3.2,3.8,85,0.00,,,0.00,WUHU216TE923,2013-06-02 00:43:00,
2013-06-01 20:48:00,73.9,69.1,29.82,West,270,2.9,4.7,85,0.03,,,0.03,WUHU216TE923,2013-06-02 00:48:00,
2013-06-01 20:53:00,73.9,69.1,29.82,West,270,2.9,4.7,85,0.03,,,0.03,WUHU216TE923,2013-06-02 00:53:00,
2013-06-01 20:58:00,73.8,69.7,29.83,SSW,203,3.7,4.2,87,0.03,,,0.03,WUHU216TE923,2013-06-02 00:58:00,
2013-06-01 21:03:00,73.8,69.7,29.83,SSW,203,3.7,4.2,87,0.03,,,0.03,WUHU216TE923,2013-06-02 01:03:00,
2013-06-01 21:08:00,73.6,70.2,29.83,West,270,3.8,6.1,89,0.03,,,0.03,WUHU216TE923,2013-06-02 01:08:00,
2013-06-01 21:13:00,73.6,70.2,29.83,West,270,3.8,6.1,89,0.03,,,0.03,WUHU216TE923,2013-06-02 01:13:00,
2013-06-01 21:18:00,73.6,70.2,29.83,SSW,203,3.4,3.8,89,0.03,,,0.03,WUHU216TE923,2013-06-02 01:18:00,
2013-06-01 21:23:00,73.6,70.2,29.83,SSW,203,3.4,3.8,89,0.03,,,0.03,WUHU216TE923,2013-06-02 01:23:00,
2013-06-01 21:27:00,73.4,70.0,29.83,SSW,203,3.6,5.7,89,0.03,,,0.03,WUHU216TE923,2013-06-02 01:27:00,
2013-06-01 21:33:00,73.4,70.0,29.83,SSW,203,3.6,5.7,89,0.03,,,0.03,WUHU216TE923,2013-06-02 01:33:00,
2013-06-01 21:38:00,73.0,69.6,29.86,SW,225,3.7,4.2,89,0.03,,,0.03,WUHU216TE923,2013-06-02 01:38:00,
2013-06-01 21:43:00,73.0,69.6,29.86,SW,225,3.7,4.2,89,0.03,,,0.03,WUHU216TE923,2013-06-02 01:43:00,
2013-06-01 21:48:00,73.0,69.2,29.86,West,270,3.7,4.1,88,0.00,,,0.03,WUHU216TE923,2013-06-02 01:48:00,
2013-06-01 21:53:00,73.0,69.2,29.86,West,270,3.7,4.1,88,0.00,,,0.03,WUHU216TE923,2013-06-02 01:53:00,
2013-06-01 21:58:00,72.9,69.1,29.88,WSW,248,3.0,3.6,88,0.00,,,0.03,WUHU216TE923,2013-06-02 01:58:00,
2013-06-01 22:03:00,72.9,69.1,29.88,WSW,248,3.0,3.6,88,0.00,,,0.03,WUHU216TE923,2013-06-02 02:03:00,
2013-06-01 22:08:00,72.5,68.7,29.88,SW,225,2.3,3.0,88,0.00,,,0.03,WUHU216TE923,2013-06-02 02:08:00,
2013-06-01 22:13:00,72.5,68.7,29.88,SW,225,2.3,3.0,88,0.00,,,0.03,WUHU216TE923,2013-06-02 02:13:00,
2013-06-01 22:18:00,72.3,68.5,29.87,WSW,248,1.9,2.1,88,0.00,,,0.03,WUHU216TE923,2013-06-02 02:18:00,
2013-06-01 22:23:00,72.3,68.5,29.87,WSW,248,1.9,2.1,88,0.00,,,0.03,WUHU216TE923,2013-06-02 02:23:00,
2013-06-01 22:28:00,72.3,68.5,29.87,West,270,2.0,2.5,88,0.00,,,0.03,WUHU216TE923,2013-06-02 02:28:00,
2013-06-01 22:32:00,72.3,68.5,29.87,West,270,2.0,2.5,88,0.00,,,0.03,WUHU216TE923,2013-06-02 02:32:00,
2013-06-01 22:37:00,72.0,68.3,29.88,WSW,248,2.2,2.3,88,0.00,,,0.03,WUHU216TE923,2013-06-02 02:37:00,
2013-06-01 22:42:00,72.0,68.3,29.88,WSW,248,2.2,2.3,88,0.00,,,0.03,WUHU216TE923,2013-06-02 02:42:00,
2013-06-01 22:47:00,71.8,68.1,29.88,SW,225,2.4,2.9,88,0.00,,,0.03,WUHU216TE923,2013-06-02 02:47:00,
2013-06-01 22:52:00,71.8,68.1,29.88,SW,225,2.4,2.9,88,0.00,,,0.03,WUHU216TE923,2013-06-02 02:52:00,
2013-06-01 22:57:00,71.8,67.7,29.88,West,270,2.7,4.1,87,0.00,,,0.03,WUHU216TE923,2013-06-02 02:57:00,
2013-06-01 23:02:00,71.8,67.7,29.88,West,270,2.7,4.1,87,0.00,,,0.03,WUHU216TE923,2013-06-02 03:02:00,
2013-06-01 23:07:00,71.6,67.5,29.88,WSW,248,2.8,3.4,87,0.00,,,0.03,WUHU216TE923,2013-06-02 03:07:00,
2013-06-01 23:12:00,71.6,67.5,29.88,WSW,248,2.8,3.4,87,0.00,,,0.03,WUHU216TE923,2013-06-02 03:12:00,
2013-06-01 23:17:00,71.4,67.3,29.88,WSW,248,2.8,3.7,87,0.00,,,0.03,WUHU216TE923,2013-06-02 03:17:00,
2013-06-01 23:22:00,71.4,67.3,29.88,WSW,248,2.8,3.7,87,0.00,,,0.03,WUHU216TE923,2013-06-02 03:22:00,
2013-06-01 23:27:00,71.4,67.3,29.88,West,270,2.2,2.7,87,0.00,,,0.03,WUHU216TE923,2013-06-02 03:27:00,
2013-06-01 23:32:00,71.4,67.3,29.88,West,270,2.2,2.7,87,0.00,,,0.03,WUHU216TE923,2013-06-02 03:32:00,
2013-06-01 23:37:00,71.1,66.7,29.89,SW,225,2.2,3.3,86,0.00,,,0.03,WUHU216TE923,2013-06-02 03:37:00,
2013-06-01 23:42:00,71.1,66.7,29.89,SW,225,2.2,3.3,86,0.00,,,0.03,WUHU216TE923,2013-06-02 03:42:00,
2013-06-01 23:47:00,71.1,66.4,29.89,WSW,248,2.4,2.9,85,0.00,,,0.03,WUHU216TE923,2013-06-02 03:47:00,
2013-06-01 23:52:00,71.1,66.4,29.89,WSW,248,2.4,2.9,85,0.00,,,0.03,WUHU216TE923,2013-06-02 03:52:00,
2013-06-01 23:57:00,70.9,66.5,29.90,WSW,248,2.3,2.4,86,0.00,,,0.03,WUHU216TE923,2013-06-02 03:57:00,